Location: Engelmannsreuth
(49.8125°N, 11.6497°E)
Time: 18:38:14
(UTC+00:00)

CZ-2C R/B - Pass Details

Date: 17 February 2020
Orbit: 668 x 785 km, 98.1° (Epoch: 28 March)

Event Time Altitude Azimuth Distance (km) Brightness Sun altitude
Rises 04:38:29 0° 7° (N) 3,289 5.9 -17.2°
Reaches altitude 10° 04:41:00 10° 358° (N) 2,356 5.0 -16.7°
Maximum altitude 04:45:37 33° 296° (WNW) 1,295 3.2 -16.0°
Enters shadow 04:47:48 24° 254° (WSW) 1,590 3.6 -15.6°
